Change the Weather History Date:

Saturday, April 5, 2014

  Actual Average Record
Temperature  
Mean Temperature 44 °F -  
Max Temperature 62 °F 63 °F 85 °F (1954)
Min Temperature 27 °F 36 °F 22 °F (1968)
Degree Days  
Heating Degree Days 21    
Moisture  
Dew Point 28 °F    
Average Humidity 57    
Maximum Humidity 89    
Minimum Humidity 28    
Precipitation  
Precipitation 0.00 in - - ()
Sea Level Pressure  
Sea Level Pressure 30.12 in    
Wind  
Wind Speed 5 mph (SE)    
Max Wind Speed 14 mph    
Max Gust Speed 21 mph    
Visibility 10 miles    
Events      
Averages and records for this station are not official NWS values.
T = Trace of Precipitation, MM = Missing Value Source: NWS Daily Summary

Daily Weather History Graph

Daily Weather History Graph

Search for Another Location

Airport or City:

Trip Planner

Search our weather history database for the weather conditions in past years. The results will help you decide how hot, cold, wet, or windy it might be!

Date:

Astronomy

Apr. 05, 2014 Rise Set
Actual Time 7:01 AM CDT 7:50 PM CDT
Civil Twilight 6:34 AM CDT 8:17 PM CDT
Nautical Twilight 6:02 AM CDT 8:49 PM CDT
Astronomical Twilight 5:28 AM CDT 9:22 PM CDT
Moon 11:11 AM CDT (4/5) 12:59 AM CDT (4/5)
Length of Visible Light 13h 43m
Length of Day
12h 49m
Waxing Crescent, 34% of the Moon is Illuminated
Apr 5
Waxing Crescent
Apr 7
First Quarter
Apr 15
Full
Apr 22
Last Quarter
Apr 29
New

Hourly Weather History & Observations

Time (CDT) Temp. Windchill Dew Point Humidity Pressure Visibility Wind Dir Wind Speed Gust Speed Precip Events Conditions
12:53 AM 32.0 °F - 26.1 °F 79% 30.19 in 10.0 mi Calm Calm - N/A   Clear
1:53 AM 30.0 °F - 26.1 °F 85% 30.19 in 10.0 mi Calm Calm - N/A   Clear
2:53 AM 28.9 °F 23.9 °F 26.1 °F 89% 30.17 in 10.0 mi ESE 4.6 mph - N/A   Clear
3:53 AM 28.0 °F 24.2 °F 24.1 °F 85% 30.16 in 10.0 mi SE 3.5 mph - N/A   Clear
4:53 AM 28.9 °F 25.2 °F 25.0 °F 85% 30.17 in 10.0 mi SE 3.5 mph - N/A   Clear
5:53 AM 27.0 °F 23.0 °F 24.1 °F 89% 30.18 in 10.0 mi SSE 3.5 mph - N/A   Clear
6:53 AM 27.0 °F 21.6 °F 21.9 °F 81% 30.19 in 9.0 mi SSE 4.6 mph - N/A   Clear
7:53 AM 28.9 °F 23.9 °F 25.0 °F 85% 30.21 in 9.0 mi South 4.6 mph - N/A   Clear
8:53 AM 37.9 °F 33.5 °F 30.0 °F 73% 30.19 in 10.0 mi SSE 5.8 mph - N/A   Clear
9:53 AM 45.0 °F 38.9 °F 30.9 °F 58% 30.18 in 10.0 mi SE 12.7 mph - N/A   Clear
10:53 AM 48.9 °F - 30.0 °F 48% 30.18 in 10.0 mi SSE 10.4 mph - N/A   Clear
11:53 AM 52.0 °F - 30.9 °F 45% 30.17 in 10.0 mi SE 10.4 mph - N/A   Clear
12:53 PM 55.9 °F - 28.9 °F 36% 30.14 in 10.0 mi SSE 11.5 mph 20.7 mph N/A   Clear
1:53 PM 57.9 °F - 28.0 °F 32% 30.12 in 10.0 mi South 8.1 mph - N/A   Clear
2:53 PM 59.0 °F - 26.1 °F 28% 30.09 in 10.0 mi SSE 10.4 mph - N/A   Clear
3:53 PM 61.0 °F - 28.0 °F 29% 30.06 in 10.0 mi ESE 11.5 mph - N/A   Clear
4:53 PM 61.0 °F - 28.9 °F 30% 30.03 in 10.0 mi ESE 13.8 mph - N/A   Clear
5:53 PM 59.0 °F - 28.0 °F 31% 30.02 in 10.0 mi SE 13.8 mph - N/A   Clear
6:53 PM 57.0 °F - 28.0 °F 33% 30.03 in 10.0 mi SE 12.7 mph - N/A   Clear
7:53 PM 53.1 °F - 30.0 °F 41% 30.03 in 10.0 mi SE 8.1 mph - N/A   Clear
8:53 PM 51.1 °F - 32.0 °F 48% 30.03 in 10.0 mi ESE 8.1 mph - N/A   Clear
9:53 PM 50.0 °F - 32.0 °F 50% 30.04 in 10.0 mi SE 5.8 mph - N/A   Clear
10:53 PM 48.9 °F - 32.0 °F 52% 30.04 in 10.0 mi ESE 5.8 mph - N/A   Clear
11:53 PM 48.0 °F - 32.0 °F 54% 30.04 in 10.0 mi SE 6.9 mph - N/A   Clear